710  
ASUS43 KDTX 020110  
RWRMI  
MICHIGAN HOURLY REGIONAL WEATHER ROUNDUP  
NATIONAL WEATHER SERVICE DETROIT/PONTIAC MI  
900 PM EDT MON SEP 01 2014  
 
NOTE: "FAIR" INDICATES FEW OR NO CLOUDS BELOW 12,000 FEET WITH NO  
SIGNIFICANT WEATHER AND/OR TO VISIBILITY
.  
 
MIZ047>049-052>055-059>063-066>070-074>076-081>083-020200-  
SOUTHEAST LOWER MICHIGAN  
 
CITY SKY/WX TMP DP RH WIND PRES REMARKS
 
ADRIAN MOCLDY 76 69 79 W5 29.83R  
ALMA PTCLDY 72 66 81 SW5 29.78R  
BAD AXE MOCLDY 69 69 100 S7 29.78R  
DETROIT CITY CLOUDY 76 71 85 SW6 29.81R  
DETROIT MOCLDY 73 71 93 S6 29.81R  
FLINT MOCLDY 74 69 85 S5 29.79R  
GROSSE ILE MOCLDY 73 70 88 CALM 29.80S  
HILLSDALE CLEAR 76 72 87 SW6 29.84R  
HOWELL CLEAR 71 69 95 CALM 29.81R  
 
CITY SKY/WX TMP DP RH WIND PRES REMARKS
 
JACKSON CLEAR 75 69 81 SW6 29.82R  
LAMBERTVILLE PTCLDY 79 70 73 SW9 29.83R  
LANSING MOCLDY 75 67 76 W8 29.80R  
LAPEER NOT AVBL  
MASON PTCLDY 73 70 89 CALM 29.81R  
MONROE MOCLDY 79 70 73 SW7 29.80R  
MT. CLEMENS CLOUDY 72 71 99 CALM 29.80R  
PONTIAC MOCLDY 71 67 87 CALM 29.81R  
PORT HOPE N/A 70 67 90 SW6 29.74R  
PORT HURON CLOUDY 68 68 100 CALM 29.81R  
TRI CITIES CLOUDY 76 67 73 SW10 29.77R  
YPSILANTI PTCLDY 76 69 79 SW5 29.81R  

 
MIZ043>046-050>051-056>058-064>065-071>073-077>080-020200-  
SOUTHWEST LOWER MICHIGAN  
 
CITY SKY/WX TMP DP RH WIND PRES REMARKS
 
BATTLE CREEK MOCLDY 75 68 78 W6 29.82R  
BENTON HARBOR PTCLDY 75 65 70 SW12G22 29.79R  
BIG RAPIDS CLOUDY 72 68 87 W7 29.76R  
COLDWATER PTCLDY 75 70 83 SW8 29.82R  
HOLLAND PTCLDY 73 66 78 W8 29.79R  
GRAND RAPIDS MOCLDY 75 69 81 SW7 29.79R  
KALAMAZOO CLEAR 76 65 68 W6 29.81R  
MARSHALL PTCLDY 75 69 82 SW5 29.80R  
MUSKEGON MOCLDY 73 65 75 SW8 29.77R  

 
MIZ016>042-020200-  
NORTHERN LOWER MICHIGAN  
 
CITY SKY/WX TMP DP RH WIND PRES REMARKS
 
ALPENA LGT RAIN 69 66 90 W3 29.71R  
BEAVER ISLAND PTCLDY 66 65 95 SW14 29.69R  
BELLAIRE CLOUDY 71 64 79 SW6 29.70R  
CADILLAC CLEAR 68 65 91 SW7 29.76R  
CHARLEVOIX PTCLDY 70 66 87 SW8 29.73R  
FRANKFORT CLEAR 70 64 82 SW5 29.72R  
GAYLORD MOCLDY 67 64 90 SW6 29.73R  
GRAYLING CLOUDY 69 68 95 W3 29.75R  
HARBOR SPRINGS CLOUDY 69 65 85 SW3 29.69R  
HOUGHTON LAKE CLOUDY 72 65 78 SW7 29.75R  
MANISTEE CLEAR 70 63 78 W6 29.75R  
OSCODA HVY RAIN 71 70 98 CALM 29.73R VSB 3/4  
PELLSTON MOCLDY 68 64 87 SW5 29.69R  
TRAVERSE CITY MOCLDY 72 64 76 SW7 29.71R  

 
MIZ007>008-015-020200-  
EASTERN UPPER MICHIGAN  
 
CITY SKY/WX TMP DP RH WIND PRES REMARKS
 
KINROSS CLOUDY 66 64 94 SW3 29.67R  
MACKINAC ISLAN PTCLDY 66 64 94 SW9G16 29.67R  
NEWBERRY CLOUDY 64 61 90 NW8 29.67R  
S. S. MARIE HVY RAIN 65 63 93 NW9 29.65R FOG  

 
MIZ004>006-011>014-085-020200-  
CENTRAL UPPER MICHIGAN  
 
CITY SKY/WX TMP DP RH WIND PRES REMARKS
 
MANISTIQUE PTCLDY 65 63 94 W3 29.68R  
ESCANABA CLEAR 63 57 82 W3 29.68R  
MENOMINEE CLEAR 70 63 78 W3 29.69R  
SAWYER-GWINN CLEAR 63 57 82 W6 29.69R  

 
MIZ001>003-009>011-084-020200-  
WESTERN UPPER MICHIGAN  
 
CITY SKY/WX TMP DP RH WIND PRES REMARKS
 
IRON MOUNTAIN PTCLDY 63 59 87 NW3 29.69R  
HOUGHTON CLEAR 62 56 80 W13 29.65R  
COPPER HARBOR N/A 66 55 67 NW10G21 29.61R  

 
 
ABBREVIATIONS USED IN REMARKS  
TC - TEMPERATURE IN CELSIUS  
WCI - WIND CHILL INDEX  
HX - HEAT INDEX  
VSB - VISIBILITY  
 
CLICK HERE TO GO TO PREVIOUS BULLETINS.

The Nexlab MI Page Main Text Page